TimeCDT,TemperatureF,Dew PointF,Humidity,Sea Level PressureIn,VisibilityMPH,Wind Direction,Wind SpeedMPH,Gust SpeedMPH,PrecipitationIn,Events,Conditions,WindDirDegrees,DateUTC
12:52 AM,55.0,54.0,96,29.96,4.0,North,3.5,-,N/A,,Clear,360,2012-09-30 05:52:00
1:52 AM,55.0,53.1,93,29.95,4.0,Calm,Calm,-,N/A,,Clear,0,2012-09-30 06:52:00
2:52 AM,54.0,53.1,97,29.94,4.0,Calm,Calm,-,N/A,,Clear,0,2012-09-30 07:52:00
3:50 AM,51.8,51.8,100,29.95,2.5,Calm,Calm,-,N/A,,Clear,0,2012-09-30 08:50:00
3:52 AM,52.0,51.1,97,29.94,2.5,Calm,Calm,-,N/A,,Clear,0,2012-09-30 08:52:00
4:11 AM,51.8,51.8,100,29.95,1.2,Calm,Calm,-,N/A,,Clear,0,2012-09-30 09:11:00
4:25 AM,51.8,51.8,100,29.94,2.0,Calm,Calm,-,N/A,,Clear,0,2012-09-30 09:25:00
4:28 AM,51.8,51.8,100,29.94,0.8,Calm,Calm,-,N/A,,Clear,0,2012-09-30 09:28:00
4:45 AM,53.6,51.8,94,29.93,2.0,Calm,Calm,-,N/A,,Clear,0,2012-09-30 09:45:00
4:52 AM,53.1,52.0,96,29.92,3.0,Calm,Calm,-,N/A,,Clear,0,2012-09-30 09:52:00
5:19 AM,53.6,51.8,94,29.93,1.5,Calm,Calm,-,N/A,,Clear,0,2012-09-30 10:19:00
5:44 AM,51.8,51.8,100,29.93,2.5,Calm,Calm,-,0.01,,Clear,0,2012-09-30 10:44:00
5:50 AM,51.8,51.8,100,29.93,0.8,Calm,Calm,-,0.01,,Clear,0,2012-09-30 10:50:00
5:52 AM,53.1,51.1,93,29.92,0.5,Calm,Calm,-,0.01,Fog,Fog,0,2012-09-30 10:52:00
6:11 AM,51.8,51.8,100,29.93,0.2,Calm,Calm,-,N/A,Fog,Fog,0,2012-09-30 11:11:00
6:27 AM,51.8,51.8,100,29.92,1.2,Calm,Calm,-,N/A,,Partly Cloudy,0,2012-09-30 11:27:00
6:43 AM,51.8,51.8,100,29.92,0.2,Calm,Calm,-,N/A,Fog,Fog,0,2012-09-30 11:43:00
6:52 AM,51.1,50.0,96,29.92,0.2,Calm,Calm,-,N/A,Fog,Fog,0,2012-09-30 11:52:00
7:17 AM,51.8,51.8,100,29.93,0.2,Calm,Calm,-,N/A,Fog,Fog,0,2012-09-30 12:17:00
7:27 AM,51.8,51.8,100,29.93,1.0,SSW,3.5,-,N/A,,Clear,200,2012-09-30 12:27:00
7:37 AM,53.6,51.8,94,29.93,2.5,Calm,Calm,-,N/A,,Clear,0,2012-09-30 12:37:00
7:52 AM,54.0,53.1,97,29.93,2.0,Calm,Calm,-,N/A,,Clear,0,2012-09-30 12:52:00
8:15 AM,55.4,53.6,94,29.94,3.0,Calm,Calm,-,N/A,,Clear,0,2012-09-30 13:15:00
8:30 AM,57.2,55.4,94,29.95,2.5,Calm,Calm,-,N/A,,Clear,0,2012-09-30 13:30:00
8:52 AM,60.1,57.0,90,29.94,2.5,Calm,Calm,-,N/A,,Clear,0,2012-09-30 13:52:00
9:10 AM,62.6,57.2,82,29.94,3.0,Calm,Calm,-,N/A,,Clear,0,2012-09-30 14:10:00
9:52 AM,64.9,57.9,78,29.93,4.0,Calm,Calm,-,N/A,,Haze,0,2012-09-30 14:52:00
10:52 AM,68.0,57.9,70,29.92,6.0,Calm,Calm,-,N/A,,Haze,0,2012-09-30 15:52:00
11:52 AM,71.1,55.0,57,29.90,10.0,Variable,3.5,-,N/A,,Clear,0,2012-09-30 16:52:00
12:52 PM,73.0,54.0,51,29.87,10.0,Calm,Calm,-,N/A,,Clear,0,2012-09-30 17:52:00
1:52 PM,73.0,52.0,48,29.85,10.0,ENE,3.5,-,N/A,,Clear,60,2012-09-30 18:52:00
2:52 PM,73.0,53.1,49,29.84,10.0,South,3.5,-,N/A,,Clear,170,2012-09-30 19:52:00
3:52 PM,73.0,52.0,48,29.83,10.0,Calm,Calm,-,N/A,,Clear,0,2012-09-30 20:52:00
4:52 PM,72.0,57.0,59,29.82,10.0,Calm,Calm,-,N/A,,Clear,0,2012-09-30 21:52:00
5:52 PM,70.0,57.0,63,29.82,10.0,Calm,Calm,-,N/A,,Clear,0,2012-09-30 22:52:00
6:52 PM,66.9,57.0,70,29.81,10.0,NE,3.5,-,N/A,,Clear,40,2012-09-30 23:52:00
7:52 PM,64.9,57.0,75,29.81,10.0,NNE,4.6,-,N/A,,Clear,20,2012-10-01 00:52:00
8:52 PM,64.0,57.9,80,29.83,10.0,Calm,Calm,-,N/A,,Clear,0,2012-10-01 01:52:00
9:52 PM,64.0,57.9,80,29.83,7.0,ESE,3.5,-,N/A,,Clear,120,2012-10-01 02:52:00
10:52 PM,63.0,57.9,84,29.81,7.0,SSE,3.5,-,N/A,,Clear,150,2012-10-01 03:52:00
11:52 PM,62.1,59.0,90,29.81,8.0,Calm,Calm,-,N/A,,Scattered Clouds,0,2012-10-01 04:52:00